Weather History for Quincy, IL

Change the Weather History Date:

Monday, October 7, 2013

  Actual Average Record
Temperature  
Mean Temperature 60 °F 58 °F  
Max Temperature 70 °F 68 °F 96 °F (1939)
Min Temperature 49 °F 47 °F 22 °F (1952)
Degree Days  
Heating Degree Days 5 8  
Month to date heating degree days 27 52  
Since 1 July heating degree days 64 139  
Cooling Degree Days 0 1  
Month to date cooling degree days 42 8  
Year to date cooling degree days 1241 1084  
Growing Degree Days 9 (Base 50)    
Moisture  
Dew Point 45 °F    
Average Humidity 65    
Maximum Humidity 93    
Minimum Humidity 37    
Precipitation  
Precipitation 0.00 in 0.10 in 2.36 in (1930)
Month to date precipitation 0.36 0.72  
Year to date precipitation 30.26 29.77  
Sea Level Pressure  
Sea Level Pressure 30.00 in    
Wind  
Wind Speed 7 mph (West)    
Max Wind Speed 14 mph    
Max Gust Speed 18 mph    
Visibility 10 miles    
Events      
T = Trace of Precipitation, MM = Missing Value Source: NWS Daily Summary

Daily Weather History Graph

Daily Weather History Graph

Search for Another Location

Airport:

Trip Planner

Search our weather history database for the weather conditions in past years. The results will help you decide how hot, cold, wet, or windy it might be!

Date:

Astronomy

Oct. 07, 2013 Rise Set
Actual Time 7:07 AM CDT 6:37 PM CDT
Civil Twilight 6:40 AM CDT 7:04 PM CDT
Nautical Twilight 6:08 AM CDT 7:35 PM CDT
Astronomical Twilight 5:37 AM CDT 8:06 PM CDT
Moon 9:57 AM CDT (10/7) 8:22 PM CDT (10/7)
Length of Visible Light 12h 23m
Length of Day
11h 29m
Waxing Crescent, 9% of the Moon is Illuminated
Oct 7
Waxing Crescent
Oct 11
First Quarter
Oct 18
Full
Oct 26
Last Quarter
Nov 3
New

Hourly Weather History & Observations

Time (CDT) Temp. Dew Point Humidity Pressure Visibility Wind Dir Wind Speed Gust Speed Precip Events Conditions
12:03 AM 48.2 °F 44.6 °F 87% 29.88 in 10.0 mi WNW 9.2 mph - N/A   Overcast
12:50 AM 48.2 °F 46.4 °F 93% 29.89 in 10.0 mi WNW 8.1 mph - N/A   Overcast
12:54 AM 48.9 °F 46.0 °F 90% 29.89 in 10.0 mi WNW 8.1 mph - N/A   Overcast
1:01 AM 48.2 °F 46.4 °F 93% 29.89 in 10.0 mi West 6.9 mph - N/A   Overcast
1:09 AM 48.2 °F 46.4 °F 93% 29.90 in 10.0 mi WNW 9.2 mph - N/A   Overcast
1:23 AM 48.2 °F 46.4 °F 93% 29.89 in 10.0 mi West 8.1 mph - N/A   Overcast
1:54 AM 48.9 °F 46.9 °F 93% 29.91 in 10.0 mi West 6.9 mph - N/A   Overcast
2:19 AM 50.0 °F 46.4 °F 87% 29.91 in 10.0 mi West 9.2 mph - N/A   Overcast
2:54 AM 50.0 °F 46.9 °F 89% 29.92 in 10.0 mi WNW 8.1 mph - N/A   Overcast
3:12 AM 50.0 °F 46.4 °F 87% 29.91 in 10.0 mi West 8.1 mph - N/A   Overcast
3:54 AM 50.0 °F 46.9 °F 89% 29.93 in 10.0 mi West 9.2 mph - N/A   Overcast
4:11 AM 50.0 °F 46.4 °F 87% 29.93 in 10.0 mi WNW 9.2 mph - N/A   Overcast
4:49 AM 48.2 °F 46.4 °F 93% 29.95 in 10.0 mi WNW 11.5 mph - N/A   Overcast
4:54 AM 50.0 °F 46.0 °F 86% 29.96 in 10.0 mi WNW 11.5 mph - N/A   Overcast
5:21 AM 48.2 °F 46.4 °F 93% 29.95 in 10.0 mi WNW 5.8 mph - N/A   Overcast
5:54 AM 48.9 °F 46.0 °F 90% 29.96 in 10.0 mi West 5.8 mph - N/A   Overcast
6:54 AM 50.0 °F 46.0 °F 86% 29.99 in 10.0 mi WNW 9.2 mph - N/A   Overcast
7:29 AM 48.2 °F 44.6 °F 87% 29.99 in 10.0 mi West 5.8 mph - N/A   Scattered Clouds
7:54 AM 50.0 °F 46.0 °F 86% 30.01 in 10.0 mi West 6.9 mph - N/A   Clear
8:54 AM 52.0 °F 46.0 °F 80% 30.04 in 10.0 mi WNW 12.7 mph - N/A   Partly Cloudy
9:54 AM 54.0 °F 46.0 °F 75% 30.07 in 10.0 mi West 8.1 mph - N/A   Clear
10:54 AM 57.9 °F 46.9 °F 67% 30.09 in 10.0 mi WNW 5.8 mph - N/A   Clear
11:54 AM 61.0 °F 46.0 °F 58% 30.09 in 10.0 mi West 5.8 mph - N/A   Clear
12:54 PM 64.0 °F 43.0 °F 46% 30.09 in 10.0 mi Variable 4.6 mph - N/A   Clear
1:54 PM 66.9 °F 43.0 °F 42% 30.06 in 10.0 mi West 10.4 mph - N/A   Clear
2:54 PM 68.0 °F 43.0 °F 40% 30.06 in 10.0 mi West 9.2 mph - N/A   Clear
3:54 PM 70.0 °F 42.1 °F 36% 30.05 in 10.0 mi West 9.2 mph - N/A   Clear
4:54 PM 70.0 °F 43.0 °F 38% 30.04 in 10.0 mi West 10.4 mph - N/A   Clear
5:54 PM 68.0 °F 43.0 °F 40% 30.04 in 10.0 mi West 6.9 mph - N/A   Clear
6:54 PM 60.1 °F 44.1 °F 55% 30.06 in 10.0 mi SW 3.5 mph - N/A   Clear
7:54 PM 57.9 °F 44.1 °F 60% 30.07 in 10.0 mi SW 4.6 mph - N/A   Clear
8:54 PM 55.9 °F 44.1 °F 64% 30.09 in 10.0 mi SSW 4.6 mph - N/A   Clear
9:54 PM 55.0 °F 43.0 °F 64% 30.10 in 10.0 mi SSW 4.6 mph - N/A   Clear
10:54 PM 51.1 °F 44.1 °F 77% 30.12 in 10.0 mi SSW 5.8 mph - N/A   Clear
11:54 PM 50.0 °F 43.0 °F 77% 30.12 in 10.0 mi SSW 5.8 mph - N/A   Clear